When you browse on this site, cookies collect data to enhance your experience and personalize the content and advertising you see.
Visit our Privacy Policy to learn more. By continuing to use the site, you agree to this use of cookies and data.
  • In France
  • List of Countries
  • For 7 days
  • Water Temperature
  • Satellite Maps
  • Weather Map
  • Weather Widgets
  • user-avatar
    Login

    Hourly Weather San Luis

    Today, 20 November, Tuesday

    Time Temperature Precipitation Wind Pressure Humidity
    00:00 +23°C° 0 mm 9 mps 696 mmHg 49%
    01:00 +23°C° 0 mm 9 mps 696 mmHg 51%
    02:00 +22°C° 0 mm 9 mps 696 mmHg 48%
    03:00 +21°C° 0 mm 8 mps 696 mmHg 50%
    04:00 +21°C° 0 mm 7 mps 696 mmHg 52%
    05:00 +20°C° 0 mm 6 mps 696 mmHg 53%
    06:00 +22°C° 0 mm 6 mps 697 mmHg 49%
    07:00 +24°C° 0 mm 6 mps 698 mmHg 44%
    08:00 +27°C° 0 mm 6 mps 698 mmHg 39%
    09:00 +29°C° 0 mm 5 mps 698 mmHg 36%
    10:00 +30°C° 0 mm 4 mps 698 mmHg 32%
    11:00 +33°C° 0 mm 3 mps 698 mmHg 28%
    12:00 +34°C° 0 mm 3 mps 698 mmHg 27%
    13:00 +35°C° 0 mm 3 mps 697 mmHg 25%
    14:00 +36°C° 0 mm 3 mps 697 mmHg 24%
    15:00 +36°C° 0 mm 4 mps 696 mmHg 24%
    16:00 +36°C° 0 mm 4 mps 696 mmHg 24%
    17:00 +36°C° 0 mm 4 mps 695 mmHg 24%
    18:00 +34°C° 0 mm 4 mps 695 mmHg 29%
    19:00 +32°C° 0 mm 4 mps 695 mmHg 34%
    20:00 +29°C° 0 mm 4 mps 695 mmHg 39%
    21:00 +29°C° 0 mm 5 mps 695 mmHg 41%
    22:00 +28°C° 0 mm 6 mps 696 mmHg 43%
    23:00 +27°C° 0 mm 6 mps 696 mmHg 46%

    Tomorrow, 21 November, Wednesday

    Time Temperature Precipitation Wind Pressure Humidity
    00:00 +27°C° 0 mm 7 mps 696 mmHg 45%
    01:00 +27°C° 0 mm 8 mps 696 mmHg 45%
    02:00 +27°C° 0 mm 9 mps 695 mmHg 45%
    03:00 +26°C° 0 mm 8 mps 695 mmHg 48%
    04:00 +26°C° 0 mm 8 mps 695 mmHg 51%
    05:00 +24°C° 0 mm 8 mps 695 mmHg 54%
    06:00 +27°C° 0 mm 8 mps 696 mmHg 50%
    07:00 +28°C° 0 mm 8 mps 696 mmHg 45%
    08:00 +31°C° 0 mm 8 mps 696 mmHg 41%
    09:00 +32°C° 0 mm 7 mps 696 mmHg 37%
    10:00 +34°C° 0 mm 7 mps 696 mmHg 32%
    11:00 +36°C° 0 mm 6 mps 696 mmHg 27%
    12:00 +38°C° 0 mm 6 mps 695 mmHg 25%
    13:00 +39°C° 0 mm 6 mps 695 mmHg 22%
    14:00 +40°C° 0 mm 6 mps 694 mmHg 20%
    15:00 +39°C° 0 mm 6 mps 693 mmHg 20%
    16:00 +39°C° 0 mm 6 mps 693 mmHg 20%
    17:00 +39°C° 0 mm 6 mps 692 mmHg 20%
    18:00 +36°C° 0 mm 5 mps 692 mmHg 24%
    19:00 +34°C° 0 mm 5 mps 692 mmHg 29%
    20:00 +32°C° 0 mm 4 mps 692 mmHg 34%
    21:00 +30°C° 0 mm 5 mps 692 mmHg 37%
    22:00 +30°C° 0 mm 7 mps 693 mmHg 41%
    23:00 +29°C° 0 mm 8 mps 693 mmHg 45%

    Day after tomorrow, 22 November, Thursday

    Time Temperature Precipitation Wind Pressure Humidity
    00:00 +29°C° 0 mm 8 mps 693 mmHg 47%
    01:00 +29°C° 0 mm 8 mps 693 mmHg 48%
    02:00 +28°C° 0 mm 7 mps 693 mmHg 50%
    03:00 +26°C° 1.7 mm 8 mps 694 mmHg 53%
    04:00 +23°C° 1.7 mm 9 mps 694 mmHg 55%
    05:00 +21°C° 1.7 mm 10 mps 695 mmHg 58%
    06:00 +21°C° 0.8 mm 11 mps 696 mmHg 59%
    07:00 +19°C° 0.8 mm 11 mps 697 mmHg 60%
    08:00 +19°C° 0.8 mm 12 mps 699 mmHg 61%
    09:00 +22°C° 0.1 mm 11 mps 699 mmHg 55%
    10:00 +23°C° 0.1 mm 11 mps 700 mmHg 49%
    11:00 +24°C° 0.1 mm 11 mps 700 mmHg 44%
    12:00 +26°C° 0 mm 11 mps 700 mmHg 41%
    13:00 +27°C° 0 mm 10 mps 700 mmHg 37%
    14:00 +28°C° 0 mm 10 mps 700 mmHg 34%
    15:00 +28°C° 0 mm 10 mps 699 mmHg 33%
    16:00 +27°C° 0 mm 10 mps 699 mmHg 32%
    17:00 +27°C° 0 mm 9 mps 698 mmHg 31%
    18:00 +24°C° 0 mm 9 mps 698 mmHg 32%
    19:00 +22°C° 0 mm 9 mps 699 mmHg 34%
    20:00 +20°C° 0 mm 8 mps 699 mmHg 35%
    21:00 +18°C° 0 mm 8 mps 700 mmHg 46%
    22:00 +17°C° 0 mm 8 mps 700 mmHg 56%
    23:00 +16°C° 0 mm 7 mps 701 mmHg 66%

    23 November, Friday

    Time Temperature Precipitation Wind Pressure Humidity
    00:00 +16°C° 0 mm 7 mps 700 mmHg 70%
    01:00 +16°C° 0 mm 7 mps 700 mmHg 73%
    02:00 +16°C° 0 mm 6 mps 700 mmHg 76%
    03:00 +15°C° 0 mm 6 mps 700 mmHg 76%
    04:00 +15°C° 0 mm 6 mps 700 mmHg 76%
    05:00 +14°C° 0 mm 6 mps 700 mmHg 76%
    06:00 +15°C° 0 mm 6 mps 700 mmHg 68%
    07:00 +17°C° 0 mm 6 mps 701 mmHg 61%
    08:00 +18°C° 0 mm 7 mps 701 mmHg 54%
    09:00 +21°C° 0 mm 6 mps 701 mmHg 48%
    10:00 +23°C° 0 mm 6 mps 701 mmHg 41%
    11:00 +26°C° 0 mm 6 mps 701 mmHg 35%
    12:00 +27°C° 0 mm 6 mps 700 mmHg 34%
    13:00 +28°C° 0 mm 6 mps 700 mmHg 32%
    14:00 +28°C° 0 mm 6 mps 699 mmHg 31%
    15:00 +28°C° 0 mm 6 mps 699 mmHg 31%
    16:00 +28°C° 0 mm 7 mps 698 mmHg 32%
    17:00 +28°C° 0 mm 8 mps 698 mmHg 32%
    18:00 +26°C° 0 mm 8 mps 698 mmHg 35%
    19:00 +23°C° 0 mm 8 mps 698 mmHg 38%
    20:00 +21°C° 0 mm 8 mps 698 mmHg 40%
    21:00 +21°C° 0 mm 7 mps 698 mmHg 43%
    22:00 +20°C° 0 mm 7 mps 698 mmHg 46%
    23:00 +19°C° 0 mm 6 mps 699 mmHg 48%

    24 November, Saturday

    Time Temperature Precipitation Wind Pressure Humidity
    00:00 +19°C° 0 mm 6 mps 699 mmHg 50%
    01:00 +19°C° 0 mm 5 mps 698 mmHg 52%
    02:00 +19°C° 0 mm 5 mps 698 mmHg 54%
    03:00 +17°C° 0 mm 5 mps 698 mmHg 57%
    04:00 +17°C° 0 mm 5 mps 698 mmHg 59%
    05:00 +18°C° 0 mm 4 mps 698 mmHg 62%
    06:00 +20°C° 0 mm 4 mps 699 mmHg 59%
    07:00 +22°C° 0 mm 5 mps 699 mmHg 56%
    08:00 +23°C° 0 mm 5 mps 700 mmHg 53%
    09:00 +26°C° 0.1 mm 4 mps 700 mmHg 48%
    10:00 +28°C° 0.1 mm 4 mps 700 mmHg 43%
    11:00 +29°C° 0.1 mm 4 mps 700 mmHg 39%
    12:00 +29°C° 0.2 mm 4 mps 699 mmHg 39%
    13:00 +30°C° 0.2 mm 4 mps 698 mmHg 39%
    14:00 +30°C° 0.2 mm 4 mps 697 mmHg 39%
    15:00 +29°C° 0.1 mm 4 mps 697 mmHg 39%
    16:00 +29°C° 0.1 mm 5 mps 697 mmHg 40%
    17:00 +29°C° 0.1 mm 5 mps 696 mmHg 41%
    18:00 +28°C° 0.1 mm 5 mps 696 mmHg 44%
    19:00 +27°C° 0.1 mm 5 mps 696 mmHg 48%
    20:00 +26°C° 0.1 mm 5 mps 696 mmHg 51%
    21:00 +25°C° 0.2 mm 5 mps 697 mmHg 53%
    22:00 +23°C° 0.2 mm 6 mps 697 mmHg 55%
    23:00 +23°C° 0.2 mm 6 mps 697 mmHg 57%

    25 November, Sunday

    Time Temperature Precipitation Wind Pressure Humidity
    00:00 +22°C° 0.3 mm 6 mps 697 mmHg 60%
    01:00 +21°C° 0.3 mm 6 mps 696 mmHg 62%
    02:00 +21°C° 0.3 mm 6 mps 696 mmHg 64%
    03:00 +20°C° 0.4 mm 6 mps 696 mmHg 67%
    04:00 +20°C° 0.4 mm 5 mps 697 mmHg 69%
    05:00 +19°C° 0.4 mm 5 mps 697 mmHg 72%
    06:00 +21°C° 0.3 mm 5 mps 698 mmHg 67%
    07:00 +22°C° 0.3 mm 4 mps 698 mmHg 61%
    08:00 +23°C° 0.3 mm 4 mps 699 mmHg 56%
    09:00 +26°C° 0.4 mm 4 mps 699 mmHg 51%
    10:00 +27°C° 0.4 mm 3 mps 699 mmHg 45%
    11:00 +29°C° 0.4 mm 3 mps 699 mmHg 40%
    12:00 +30°C° 0.4 mm 3 mps 698 mmHg 38%
    13:00 +30°C° 0.4 mm 3 mps 698 mmHg 37%
    14:00 +31°C° 0.4 mm 3 mps 697 mmHg 35%
    15:00 +32°C° 0.4 mm 4 mps 697 mmHg 35%
    16:00 +32°C° 0.4 mm 5 mps 697 mmHg 34%
    17:00 +32°C° 0.4 mm 5 mps 697 mmHg 34%
    18:00 +29°C° 0.2 mm 5 mps 697 mmHg 40%
    19:00 +27°C° 0.2 mm 6 mps 697 mmHg 45%
    20:00 +26°C° 0.2 mm 6 mps 697 mmHg 51%
    21:00 +24°C° 0.6 mm 6 mps 697 mmHg 55%
    22:00 +23°C° 0.6 mm 6 mps 697 mmHg 59%
    23:00 +23°C° 0.6 mm 7 mps 698 mmHg 63%
    Show more